Regional Weather Roundup
Issued by NWS

Home | Current Version | Previous Version | Text Only | Print | Product List | Glossary Off
Versions: 1 2 3 4 5 6 7 8 9 10 11 12 13 14 15 16 17 18 19 20 21 22 23 24 25 26 27 28 29 30 31 32 33 34 35 36 37 38 39 40 41 42 43 44 45 46 47 48 49 50

000
ASUS43 KFSD 241102
RWRSD

WEATHER ROUNDUP FOR SOUTH DAKOTA
NATIONAL WEATHER SERVICE SIOUX FALLS SD
500 AM CST SAT FEB 24 2018

NOTE: "FAIR" INDICATES FEW OR NO CLOUDS BELOW 12,000 FEET WITH NO
SIGNIFICANT WEATHER AND/OR OBSTRUCTIONS TO VISIBILITY.


SDZ001>005-009-010-012>017-241200-
NORTHWEST AND NORTH CENTRAL SOUTH DAKOTA

CITY           SKY/WX    TMP DP  RH WIND       PRES   REMARKS
BUFFALO          N/A      7   2  80 SE9       29.71F WCI  -7
FAITH            N/A      5   3  91 SE18      29.84F WCI -15
MOBRIDGE       MOCLDY     0  -4  83 SE10      29.95F WCI -16
$$

SDZ012>016-024>037-041>051-057-063-072>074-241200-
SOUTHWEST AND SOUTH CENTRAL SOUTH DAKOTA

CITY           SKY/WX    TMP DP  RH WIND       PRES   REMARKS
RAPID CTY ARPT MOCLDY    15   9  76 SE13      29.77F WCI   1
PIERRE         CLOUDY     6   4  91 SE8       29.99F WCI  -7
CUSTER         CLOUDY    15  11  83 W8        29.68F WCI   4
ELLSWORTH AFB  PTCLDY    12   7  82 SE8       29.76F WCI   0
PHILIP         CLOUDY     3   1  91 E5        29.91F WCI  -6
PINE RIDGE     CLOUDY    23  19  85 S21G29    29.81F WCI   8
SPEARFISH        N/A     14   7  73 W8        29.75F WCI   3
WINNER         CLOUDY    17  13  84 S10       29.98F WCI   5
$$

SDZ004>011-016>023-039-040-241200-
NORTHEAST SOUTH DAKOTA

CITY           SKY/WX    TMP DP  RH WIND       PRES   REMARKS
ABERDEEN       FOG       -9 -13  83 CALM      30.09F VSB 1/4
WATERTOWN      CLOUDY    -4  -7  87 N3        30.05F
BROOKINGS      FLURRIES   3   0  87 CALM      30.08F
SISSETON         N/A     -3  -5  90 S5        30.11F WCI -13
$$

SDZ017-020-022-023-036>040-048>070-241200-
SOUTHEAST SOUTH DAKOTA

CITY           SKY/WX    TMP DP  RH WIND       PRES   REMARKS
SIOUX FALLS    CLOUDY    15  13  91 SE9       30.09F FOG     WCI   3
HURON          CLOUDY     3   1  91 S3        30.10F
CHAMBERLAIN    CLOUDY    10   9  92 CALM      30.03F
MITCHELL       CLOUDY     5   3  91 E3        30.11S FOG
YANKTON        MIX PCPN  16  14  92 NE8       30.07F VSB 1/4 WCI   5
$$

ABBREVIATIONS USED IN REMARKS
   TC - TEMPERATURE IN CELSIUS
  WCI - WIND CHILL INDEX
   HX - HEAT INDEX
  VSB - VISIBILITY





USA.gov is the U.S. government's official web portal to all federal, state and local government web resources and services.